Weather History for Tegucigalpa, Honduras

Change the Weather History Date:

Monday, May 6, 2013

  Actual Average Record
Temperature  
Mean Temperature 77 °F -  
Max Temperature 88 °F 83 °F 93 °F (1998)
Min Temperature 66 °F 64 °F 35 °F (2005)
Cooling Degree Days 12    
Growing Degree Days 27 (Base 50)    
Moisture  
Dew Point 67 °F    
Average Humidity 79    
Maximum Humidity 100    
Minimum Humidity 44    
Precipitation  
Precipitation 2.32 in 0.19 in - ()
Sea Level Pressure  
Sea Level Pressure 30.07 in    
Wind  
Wind Speed 5 mph ()    
Max Wind Speed 12 mph    
Max Gust Speed -    
Visibility 4.9 miles    
Events Rain , Thunderstorm    
Averages and records for this station are not official NWS values.
T = Trace of Precipitation, MM = Missing Value Source: Averaged Metar Reports

Daily Weather History Graph

Daily Weather History Graph

Search for Another Location

Airport:

Trip Planner

Search our weather history database for the weather conditions in past years. The results will help you decide how hot, cold, wet, or windy it might be!

Date:

Astronomy

May. 06, 2013 Rise Set
Actual Time 5:24 AM CST 6:06 PM CST
Civil Twilight 5:02 AM CST 6:28 PM CST
Nautical Twilight 4:35 AM CST 6:55 PM CST
Astronomical Twilight 4:09 AM CST 7:21 PM CST
Moon 2:56 AM CST (5/6) 3:30 PM CST (5/6)
Length of Visible Light 13h 26m
Length of Day
12h 41m
Waning Crescent, 10% of the Moon is Illuminated
May 6
Waning Crescent
May 9
New
May 17
First Quarter
May 24
Full
May 31
Last Quarter

Hourly Weather History & Observations

Time (CST) Temp. Heat Index Dew Point Humidity Pressure Visibility Wind Dir Wind Speed Gust Speed Precip Events Conditions
12:00 AM 71 °F - 66 °F 78% 29.97 in 6 mi SSE 11.5 mph - -   Smoke
12:00 AM 71.6 °F - 66.2 °F 83% 30.15 in 6.2 mi SSE 11.5 mph - N/A   Mostly Cloudy
1:00 AM 71.6 °F - 66.2 °F 83% 30.15 in 6.2 mi SSE 11.5 mph - N/A   Mostly Cloudy
2:00 AM 71.6 °F - 66.2 °F 83% 30.15 in 6.2 mi SSE 11.5 mph - N/A   Mostly Cloudy
3:00 AM 69 °F - 65 °F 84% 29.95 in 6 mi Calm Calm - -   Smoke
3:00 AM 68.0 °F - 64.4 °F 88% 30.12 in 6.2 mi Calm Calm - N/A   Mostly Cloudy
4:00 AM 68.0 °F - 66.2 °F 94% 30.12 in 6.2 mi Calm Calm - N/A   Mostly Cloudy
5:00 AM 68.0 °F - 66.2 °F 94% 30.12 in 6.2 mi Calm Calm - N/A   Mostly Cloudy
6:00 AM 67 °F - 66 °F 95% 29.99 in 5 mi Calm Calm - -   Mist
6:00 AM 68.0 °F - 66.2 °F 94% 30.12 in 5.0 mi Calm Calm - N/A   Scattered Clouds
7:00 AM 69.8 °F - 68.0 °F 94% 30.15 in 5.0 mi Calm Calm - N/A   Scattered Clouds
8:00 AM 73.4 °F - 68.0 °F 83% 30.15 in 5.0 mi Variable 2.3 mph - N/A   Mostly Cloudy
9:00 AM 76 °F - 67 °F 68% 29.96 in 5 mi 2.3 mph - -   Smoke
9:00 AM 75.2 °F - 68.0 °F 78% 30.15 in 5.0 mi Variable 2.3 mph - N/A   Mostly Cloudy
10:00 AM 78.8 °F - 66.2 °F 65% 30.15 in 5.0 mi NE 3.5 mph - N/A   Scattered Clouds
11:00 AM 82.4 °F 84.6 °F 66.2 °F 58% 30.12 in 5.0 mi ENE 4.6 mph - N/A   Partly Cloudy
12:00 PM 84 °F - 65 °F 44% 29.84 in 5 mi NNE 8.1 mph - -   Smoke
12:00 PM 84.2 °F 86.6 °F 66.2 °F 55% 30.09 in 5.0 mi NNE 8.1 mph - N/A   Scattered Clouds
12:23 PM 86.0 °F 88.2 °F 66.2 °F 51% 30.09 in 6.2 mi Variable 2.3 mph - N/A   Scattered Clouds
1:00 PM 87.8 °F 90.4 °F 66.2 °F 49% 30.06 in 6.2 mi NNE 9.2 mph - N/A   Scattered Clouds
2:00 PM 87.8 °F 89.4 °F 64.4 °F 46% 30.04 in 6.2 mi North 10.4 mph - N/A   Scattered Clouds
3:00 PM 79 °F - 66 °F 55% 29.82 in 6 mi South 10.4 mph - - Thunderstorm Thunderstorm
3:00 PM 78.8 °F - 66.2 °F 65% 30.04 in 6.2 mi South 10.4 mph - N/A Thunderstorm Thunderstorm
4:00 PM 77.0 °F - 66.2 °F 69% 30.04 in 6.2 mi South 5.8 mph - N/A Thunderstorm Thunderstorm
5:00 PM 77.0 °F - 68.0 °F 74% 30.04 in 6.2 mi SSE 5.8 mph - N/A Thunderstorm Thunderstorm
6:00 PM 72 °F - 70 °F 91% 29.91 in 1 mi East 5.8 mph - - Rain , Thunderstorm Thunderstorms and Rain
6:00 PM 71.6 °F - 69.8 °F 94% 30.09 in 0.6 mi East 5.8 mph - N/A Rain , Thunderstorm Thunderstorms and Rain
7:00 PM 66.2 °F - 66.2 °F 100% 30.09 in 2.5 mi SE 9.2 mph - N/A Rain , Thunderstorm Thunderstorms and Rain
8:00 PM 68.0 °F - 68.0 °F 100% 30.15 in 0.6 mi North 4.6 mph - N/A Rain , Thunderstorm Heavy Thunderstorms and Rain
9:00 PM 67 °F - 67 °F 100% 30.01 in 4 mi SSE 3.5 mph - - Thunderstorm Light Thunderstorm
9:00 PM 68.0 °F - 68.0 °F 100% 30.15 in 3.7 mi SSE 3.5 mph - N/A   Overcast
10:00 PM 68.0 °F - 68.0 °F 100% 30.15 in 3.7 mi Variable 2.3 mph - N/A   Overcast
11:00 PM 68.0 °F - 68.0 °F 100% 30.15 in 3.7 mi Variable 2.3 mph - N/A   Overcast